Clarksdale Fletcher Field Air, MS

2:46 AM CDT on October 16, 2019 (GMT -0500)
Fletcher

Weather History for KCKM - September, 2019

Change the Weather History Date:

Friday, September 20, 2019

  Actual Average (KUOX) Record (KUOX)
Temperature  
Mean Temperature 80 °F -  
Max Temperature 87 °F 83 °F 98 °F (1954)
Min Temperature 73 °F 59 °F 40 °F (1991)
Cooling Degree Days 15    
Growing Degree Days 30 (Base 50)    
Moisture  
Dew Point 71 °F    
Average Humidity 81    
Maximum Humidity 100    
Minimum Humidity 49    
Precipitation  
Precipitation 0.00 in - - ()
Sea Level Pressure  
Sea Level Pressure 30.12 in    
Wind  
Wind Speed 5 mph ()    
Max Wind Speed 15 mph    
Max Gust Speed 20 mph    
Visibility 9.9 miles    
Events      
Averages and records for this station are not official NWS values.
T = Trace of Precipitation, MM = Missing Value Source: Averaged Metar Reports

Daily Weather History Graph

Daily Weather History Graph

Search for Another Location

Airport or City:

Astronomy

Sep. 20, 2019 Rise Set
Actual Time 6:48 AM CDT 7:01 PM CDT
Civil Twilight 6:23 AM CDT 7:26 PM CDT
Nautical Twilight 5:54 AM CDT 7:56 PM CDT
Astronomical Twilight 5:24 AM CDT 8:25 PM CDT
Moon 11:07 PM CDT (9/20) 12:38 PM CDT (9/20)
Length of Visible Light 13h 03m
Length of Day
12h 13m
Waning Gibbous, 65% of the Moon is Illuminated
Sep 20
Waning Gibbous
Sep 21
Last Quarter
Sep 28
New
Oct 5
First Quarter
Oct 13
Full

Hourly Weather History & Observations

Time (CDT) Temp. Heat Index Dew Point Humidity Pressure Visibility Wind Dir Wind Speed Gust Speed Precip Events Conditions
12:15 AM 73.4 °F - 73.4 °F 100% 30.05 in 10.0 mi Calm Calm - N/A   Unknown
12:35 AM 73.4 °F - 73.4 °F 100% 30.05 in 10.0 mi Calm Calm - N/A   Unknown
12:55 AM 73.4 °F - 73.4 °F 100% 30.06 in 9.0 mi Calm Calm - N/A   Unknown
1:15 AM 73.4 °F - 73.4 °F 100% 30.05 in 9.0 mi Calm Calm - N/A   Unknown
1:35 AM 73.4 °F - 73.4 °F 100% 30.06 in 10.0 mi Calm Calm - N/A   Unknown
1:55 AM 73.4 °F - 73.4 °F 100% 30.06 in 10.0 mi Calm Calm - N/A   Unknown
2:15 AM 73.4 °F - 73.4 °F 100% 30.06 in 10.0 mi Calm Calm - N/A   Unknown
2:35 AM 73.4 °F - 73.4 °F 100% 30.06 in 10.0 mi ESE 5.8 mph - N/A   Unknown
2:55 AM 73.4 °F - 73.4 °F 100% 30.06 in 10.0 mi Calm Calm - N/A   Unknown
3:15 AM 73.4 °F - 73.4 °F 100% 30.06 in 10.0 mi Calm Calm - N/A   Unknown
3:35 AM 73.4 °F - 73.4 °F 100% 30.06 in 10.0 mi Calm Calm - N/A   Unknown
3:55 AM 73.4 °F - 73.4 °F 100% 30.06 in 10.0 mi Calm Calm - N/A   Unknown
4:15 AM 73.4 °F - 73.4 °F 100% 30.07 in 10.0 mi Calm Calm - N/A   Unknown
4:35 AM 73.4 °F - 73.4 °F 100% 30.07 in 10.0 mi Calm Calm - N/A   Unknown
4:55 AM 73.4 °F - 73.4 °F 100% 30.08 in 10.0 mi Calm Calm - N/A   Unknown
5:15 AM 73.4 °F - 73.4 °F 100% 30.09 in 10.0 mi Calm Calm - N/A   Unknown
5:35 AM 73.4 °F - 73.4 °F 100% 30.09 in 10.0 mi SE 5.8 mph - N/A   Unknown
5:55 AM 73.4 °F - 73.4 °F 100% 30.10 in 10.0 mi ESE 6.9 mph - N/A   Unknown
6:15 AM 73.4 °F - 73.4 °F 100% 30.11 in 10.0 mi SE 6.9 mph - N/A   Unknown
6:35 AM 73.4 °F - 73.4 °F 100% 30.11 in 10.0 mi SE 5.8 mph - N/A   Unknown
6:55 AM 73.4 °F - 73.4 °F 100% 30.12 in 10.0 mi ESE 6.9 mph - N/A   Unknown
7:15 AM 73.4 °F - 73.4 °F 100% 30.12 in 10.0 mi SE 8.1 mph - N/A   Unknown
7:35 AM 75.2 °F - 75.2 °F 100% 30.13 in 8.0 mi SE 6.9 mph - N/A   Unknown
7:55 AM 75.2 °F - 75.2 °F 100% 30.14 in 10.0 mi SE 8.1 mph - N/A   Unknown
8:15 AM 75.2 °F - 75.2 °F 100% 30.14 in 10.0 mi SE 8.1 mph - N/A   Unknown
8:35 AM 75.2 °F - 75.2 °F 100% 30.15 in 10.0 mi ESE 10.4 mph - N/A   Unknown
8:55 AM 77.0 °F - 77.0 °F 100% 30.15 in - SE 8.1 mph - N/A   Unknown
9:15 AM 77.0 °F - 77.0 °F 100% 30.16 in 10.0 mi SSE 11.5 mph - N/A   Unknown
9:35 AM 78.8 °F - 77.0 °F 94% 30.16 in 10.0 mi SSE 9.2 mph - N/A   Unknown
9:55 AM 78.8 °F - 77.0 °F 94% 30.16 in 10.0 mi SSE 11.5 mph - N/A   Unknown
10:15 AM 80.6 °F 87.1 °F 77.0 °F 89% 30.16 in 10.0 mi SSE 12.7 mph 18.4 mph N/A   Unknown
10:35 AM 80.6 °F 87.1 °F 77.0 °F 89% 30.16 in 10.0 mi SSE 11.5 mph - N/A   Unknown
10:55 AM 82.4 °F 89.5 °F 75.2 °F 79% 30.16 in 10.0 mi SSE 12.7 mph - N/A   Unknown
11:15 AM 82.4 °F 88.2 °F 73.4 °F 74% 30.16 in 10.0 mi SSE 13.8 mph 19.6 mph N/A   Unknown
11:35 AM 82.4 °F 88.2 °F 73.4 °F 74% 30.17 in 10.0 mi SSE 11.5 mph 18.4 mph N/A   Unknown
11:55 AM 86.0 °F 93.4 °F 73.4 °F 66% 30.16 in 10.0 mi SE 12.7 mph - N/A   Unknown
12:15 PM 84.2 °F 89.6 °F 71.6 °F 66% 30.16 in 10.0 mi SSE 12.7 mph - N/A   Unknown
12:35 PM 86.0 °F 91.8 °F 71.6 °F 62% 30.16 in 10.0 mi SSE 13.8 mph - N/A   Unknown
12:55 PM 86.0 °F 90.4 °F 69.8 °F 58% 30.16 in 10.0 mi SE 15.0 mph - N/A   Unknown
1:15 PM 87.8 °F 92.6 °F 69.8 °F 55% 30.15 in 10.0 mi SSE 11.5 mph - N/A   Unknown
1:35 PM 87.8 °F 92.6 °F 69.8 °F 55% 30.14 in 10.0 mi SSE 15.0 mph - N/A   Unknown
1:55 PM 87.8 °F 92.6 °F 69.8 °F 55% 30.14 in 10.0 mi SSE 12.7 mph - N/A   Unknown
2:15 PM 87.8 °F 92.6 °F 69.8 °F 55% 30.13 in 10.0 mi South 13.8 mph - N/A   Unknown
2:35 PM 87.8 °F 91.4 °F 68.0 °F 52% 30.13 in 10.0 mi SSE 11.5 mph 18.4 mph N/A   Unknown
2:55 PM 87.8 °F 91.4 °F 68.0 °F 52% 30.12 in 10.0 mi South 11.5 mph - N/A   Unknown
3:15 PM 87.8 °F 91.4 °F 68.0 °F 52% 30.12 in 10.0 mi SSE 9.2 mph 15.0 mph N/A   Unknown
3:55 PM 87.8 °F 91.4 °F 68.0 °F 52% 30.11 in 10.0 mi SSE 9.2 mph - N/A   Unknown
4:15 PM 87.8 °F 90.4 °F 66.2 °F 49% 30.10 in 10.0 mi SE 10.4 mph - N/A   Unknown
4:35 PM 87.8 °F 90.4 °F 66.2 °F 49% 30.10 in 10.0 mi Variable 6.9 mph - N/A   Unknown
4:55 PM 87.8 °F 90.4 °F 66.2 °F 49% 30.10 in 10.0 mi ESE 10.4 mph - N/A   Unknown
5:15 PM 87.8 °F 90.4 °F 66.2 °F 49% 30.10 in 10.0 mi ESE 10.4 mph - N/A   Unknown
5:55 PM 86.0 °F 88.2 °F 66.2 °F 51% 30.10 in 10.0 mi ESE 8.1 mph - N/A   Unknown
6:15 PM 86.0 °F 89.4 °F 68.0 °F 55% 30.10 in 10.0 mi SE 8.1 mph - N/A   Unknown
6:35 PM 86.0 °F 89.4 °F 68.0 °F 55% 30.10 in 10.0 mi ESE 6.9 mph - N/A   Unknown
6:55 PM 82.4 °F 85.4 °F 68.0 °F 62% 30.11 in 10.0 mi SE 5.8 mph - N/A   Unknown
7:15 PM 82.4 °F 85.4 °F 68.0 °F 62% 30.11 in 10.0 mi SE 6.9 mph - N/A   Unknown
7:35 PM 80.6 °F 83.2 °F 68.0 °F 65% 30.11 in 10.0 mi Calm Calm - N/A   Unknown
7:55 PM 78.8 °F - 68.0 °F 69% 30.12 in 10.0 mi Calm Calm - N/A   Unknown
8:15 PM 78.8 °F - 68.0 °F 69% 30.13 in 10.0 mi Calm Calm - N/A   Unknown
8:55 PM 77.0 °F - 69.8 °F 78% 30.13 in 10.0 mi ESE 6.9 mph - N/A   Unknown
9:15 PM 77.0 °F - 68.0 °F 74% 30.14 in 10.0 mi ESE 4.6 mph - N/A   Unknown
9:35 PM 75.2 °F - 69.8 °F 83% 30.14 in 10.0 mi ESE 5.8 mph - N/A   Unknown
9:55 PM 75.2 °F - 69.8 °F 83% 30.15 in 10.0 mi ESE 5.8 mph - N/A   Unknown
10:15 PM 75.2 °F - 69.8 °F 83% 30.15 in 10.0 mi ESE 5.8 mph - N/A   Unknown
10:35 PM 75.2 °F - 69.8 °F 83% 30.15 in 10.0 mi ESE 4.6 mph - N/A   Unknown
10:55 PM 75.2 °F - 68.0 °F 78% 30.16 in 10.0 mi SE 8.1 mph - N/A   Unknown
11:15 PM 73.4 °F - 68.0 °F 83% 30.16 in 10.0 mi ESE 8.1 mph - N/A   Unknown
11:35 PM 73.4 °F - 68.0 °F 83% 30.16 in 10.0 mi ESE 6.9 mph - N/A   Unknown
11:55 PM 73.4 °F - 68.0 °F 83% 30.15 in 10.0 mi SE 6.9 mph - N/A   Unknown